WS6A-13 Weather Reports


time (UTC)temp
F
wind
direction
speed
knots
gust
knots
rain 1hr
in
rain 24hr
in
rain mn
in
humidity
%
barometer
mb
20260508230004 62 202 0.0 0.0 0.00 0.00 0.00 69 1008.2
20260508223004 63 202 0.0 0.0 0.00 0.00 0.00 68 1008.2
20260508220004 64 202 0.0 0.0 0.00 0.00 0.00 64 1008.2
20260508213004 65 202 0.0 0.0 0.00 0.00 0.00 61 1008.3
20260508210003 66 202 0.0 0.0 0.00 0.00 0.00 61 1008.7
20260508204504 66 157 0.0 4.3 0.00 0.00 0.00 56 1008.8
20260508201504 66 255 0.0 2.6 0.00 0.00 0.00 51 1009.1
20260508200004 67 261 0.0 2.6 0.00 0.00 0.00 52 1009.2
20260508194503 68 253 0.9 2.6 0.00 0.00 0.00 48 1009.2
20260508193004 68 277 0.0 4.3 0.00 0.00 0.00 49 1009.4
20260508191504 70 234 1.7 5.2 0.00 0.00 0.00 46 1009.6
20260508190004 68 245 0.0 5.2 0.00 0.00 0.00 49 1009.8
20260508184504 69 251 0.9 4.3 0.00 0.00 0.00 49 1010.1
20260508183004 69 264 1.7 5.2 0.00 0.00 0.00 49 1010.4
20260508181504 67 88 0.9 2.6 0.00 0.00 0.00 54 1010.7
20260508180004 66 244 0.9 2.6 0.00 0.00 0.00 55 1011.0
20260508174504 65 252 0.0 1.7 0.00 0.00 0.00 54 1011.0
20260508171503 67 253 0.9 5.2 0.00 0.00 0.00 52 1011.6
20260508170004 67 246 1.7 4.3 0.00 0.00 0.00 52 1011.8
20260508164504 67 255 0.9 4.3 0.00 0.00 0.00 54 1012.2
20260508163004 67 244 2.6 5.2 0.00 0.00 0.00 52 1012.3
20260508161504 66 238 0.9 4.3 0.00 0.00 0.00 59 1012.4
20260508160004 65 239 0.0 6.1 0.00 0.00 0.00 60 1012.7
20260508154504 65 252 0.9 6.1 0.00 0.00 0.00 57 1012.8
20260508153004 64 224 0.9 4.3 0.00 0.00 0.00 59 1012.9
20260508151504 63 248 0.0 2.6 0.00 0.00 0.00 58 1013.0
20260508144504 62 49 0.0 2.6 0.00 0.00 0.00 58 1013.2
20260508143004 61 237 0.9 5.2 0.00 0.00 0.00 59 1013.4
20260508141503 59 233 0.9 5.2 0.00 0.00 0.00 60 1013.5
20260508140004 58 265 0.9 4.3 0.00 0.00 0.00 63 1013.5
20260508134503 56 291 0.0 1.7 0.00 0.00 0.00 66 1013.6
20260508133004 55 254 0.0 0.9 0.00 0.00 0.00 68 1013.7
20260508131504 54 229 0.0 0.0 0.00 0.00 0.00 70 1013.5
20260508130004 52 161 0.0 0.0 0.00 0.00 0.00 74 1013.5
20260508124503 51 210 0.0 0.0 0.00 0.00 0.00 74 1013.7
20260508121503 49 138 0.0 0.0 0.00 0.00 0.00 75 1013.7
20260508120004 49 128 0.0 0.0 0.00 0.00 0.00 76 1013.5
20260508113005 48 128 0.0 0.0 0.00 0.00 0.00 77 1013.4
20260508111504 48 128 0.0 0.0 0.00 0.00 0.00 77 1013.3
20260508110004 47 128 0.0 0.0 0.00 0.00 0.00 77 1013.0
20260508104504 46 128 0.0 0.0 0.00 0.00 0.00 80 1012.9
20260508100004 43 128 0.0 0.0 0.00 0.00 0.00 85 1013.1
20260508094505 43 128 0.0 0.0 0.00 0.00 0.00 85 1013.2
20260508093004 43 128 0.0 0.0 0.00 0.00 0.00 85 1013.2
20260508091504 43 128 0.0 0.0 0.00 0.00 0.00 86 1013.2
20260508090004 42 128 0.0 0.0 0.00 0.00 0.00 84 1013.2
20260508083004 42 128 0.0 0.0 0.00 0.00 0.00 82 1013.2
20260508081504 42 128 0.0 0.0 0.00 0.00 0.00 82 1013.1
20260508080004 43 128 0.0 0.0 0.00 0.00 0.00 81 1013.1
20260508074504 43 128 0.0 0.0 0.00 0.00 0.00 80 1013.0
20260508073004 44 128 0.0 0.0 0.00 0.00 0.00 81 1013.1
20260508071504 44 128 0.0 0.0 0.00 0.00 0.00 80 1013.1
20260508070004 44 128 0.0 0.0 0.00 0.00 0.00 81 1013.1
20260508064504 44 128 0.0 0.0 0.00 0.00 0.00 82 1013.4
20260508063021 44 128 0.0 0.0 0.00 0.00 0.00 81 1013.6
20260508061503 44 128 0.0 0.0 0.00 0.00 0.00 81 1013.6
20260508060004 44 128 0.0 0.0 0.00 0.00 0.00 80 1013.6
20260508054504 45 128 0.0 0.0 0.00 0.00 0.00 80 1013.7
20260508053004 45 128 0.0 0.0 0.00 0.00 0.00 80 1013.7
20260508051503 45 128 0.0 0.0 0.00 0.00 0.00 79 1013.7
20260508050004 45 128 0.0 0.0 0.00 0.00 0.00 79 1013.7
20260508044504 45 128 0.0 0.0 0.00 0.00 0.00 78 1013.6
20260508043004 45 128 0.0 0.0 0.00 0.00 0.00 79 1013.5
20260508041504 45 128 0.0 0.0 0.00 0.00 0.00 78 1013.5
20260508040004 46 128 0.0 0.0 0.00 0.00 0.00 77 1013.4
20260508033004 46 128 0.0 0.0 0.00 0.00 0.00 78 1013.5
20260508031504 46 128 0.0 0.0 0.00 0.00 0.00 80 1013.5
20260508030004 47 128 0.0 0.0 0.00 0.00 0.00 77 1013.4
20260508023003 47 128 0.0 0.0 0.00 0.00 0.00 77 1013.3
20260508021504 47 128 0.0 0.0 0.00 0.00 0.00 78 1013.3
20260508020004 48 128 0.0 0.0 0.00 0.00 0.00 73 1013.4
20260508014504 48 128 0.0 0.0 0.00 0.00 0.00 72 1013.3
20260508013004 49 128 0.0 0.0 0.00 0.00 0.00 72 1013.4
20260508011503 50 128 0.0 0.0 0.00 0.00 0.00 70 1013.3
20260508010004 52 128 0.0 0.0 0.00 0.00 0.00 70 1013.3
20260508001504 56 128 0.0 0.0 0.00 0.00 0.00 61 1013.0
20260508000003 57 128 0.0 0.0 0.00 0.00 0.00 57 1013.0
20260507234504 57 163 0.0 1.7 0.00 0.00 0.00 52 1012.9
20260507233004 58 85 0.0 1.7 0.00 0.00 0.00 51 1012.8